Location: Choisy
(48.7685°N, 2.4187°E)
Time: 01:00:53
(UTC+00:00)

Envisat - Pass Details

Date: 01 March 2024
Orbit: 762 x 764 km, 98.3° (Epoch: 12 April)

Event Time Altitude Azimuth Distance (km) Brightness Sun altitude
Rises 03:40:16 0° 12° (NNE) 3,242 6.7 -28.5°
Reaches altitude 10° 03:42:35 10° 10° (N) 2,311 5.8 -28.2°
Enters shadow 03:46:35 54° 350° (N) 932 3.4 -27.6°
